User: anonymous   Login
Location: Nebraska Star Party
(42.6000°N, 100.8833°W)
Time: 23:05:34
(UTC-05:00)
Language:

Iridium 37 - Orbit

View from above orbital plane
View from above orbital plane
View from above satellite
View from above satellite

Ground track
Ground track

The orbit data is extracted from the following two-line orbital elements,

1 24968U 97056D   15116.51631942  .00000458  00000-0  15665-3 0  9994
2 24968 086.3926 285.9970 0002099 093.0805 267.0631 14.34210778920351
Epoch (UTC): 26 April 2015 12:23:29
Eccentricity: 0.0002099
inclination: 86.3926°
perigee height: 776 km
apogee height: 779 km
right ascension of ascending node: 285.9970°
argument of perigee: 93.0805°
revolutions per day: 14.34210778
mean anomaly at epoch: 267.0631°
orbit number at epoch: 92035

The dashed part of the orbit path shows where the satellite is in the earth's shadow,  

DLR